Ingeniero Juan Guillermo Villasana Airport

Jump to: basic info | weather | frequencies | runways | comments

Related pages: nearby airports | nearby navaids | notams | map

Basic information (top)

Codes: MMPC
Location: lon 20.077400, lat -98.782501, elev 7,600 ft / 2,316 m msl
Status: small_airport

Weather (top)

Current conditions for Licenciado Benito Juarez International Airport 42nm (77km) SSW (rec'd 2014/11/01 00:45Z):

MMMX 010045Z 36015KT 12SM FEW080 15/03 A3037 NOSIG RMK 8/030 HZY

Airport forecast for Licenciado Benito Juarez International Airport 42nm (77km) SSW (rec'd 2014/10/31 00:17Z):

TAF MMMX 312310Z 0100/0206 06010G20KT P6SM BKN080 TX22/0120Z TN11/0112Z 
     FM010400 06005KT 6SM HZ SCT020 BKN080 
      BECMG 0110/0111 4SM HZ 
      TEMPO 0112/0115 BKN015 
     FM011800 06010KT 6SM HZ SCT020 BKN090 
      TEMPO 0122/0202 BKN020 
     FM020400 03005KT 6SM HZ SCT020 BKN090

Frequencies (top)

Verify before use: may be inaccurate or out of date.

AFIS: 122.9 MHz (AFIS)

Runways (top)

03/21: 6,825 x 85 ft (2,080 x 26 m) — paved — not lighted — threshold 03 displaced 656 ft (200 m) — threshold 21 displaced 865 ft (264 m)

Latest comments (top)

No comments yet for Ingeniero Juan Guillermo Villasana Airport

More... (top)

See also NOTAMs and nearby airports and navaids, or visit the Ingeniero Juan Guillermo Villasana Airport page at the main OurAirports website..